Find Starlink 38157

NORAD ID: 100263 Int'l Des: 2026-181 Owner: SPXS Country: US Constellation: starlink operational

Current View

Loading 3D Globe...

About Starlink 38157

Starlink 38157 (NORAD 100263) is a starlink constellation satellite launched Aug 8, 2026 by SPXS of US. with a mass of 575.00 kg.

Upcoming Passes

Passes for default location (London). Set your location on the main map for personalized predictions.

Altitude History

Loading altitude history...

Two-Line Element Set

1 A0263U 26181T 26250.65941000 .00195100 00000-0 12770-2 0 9994
2 A0263 97.2847 293.6939 0000847 96.7690 263.3672 15.75229898 5940
Epoch: Sep 7, 2026 • Age: 26 hours

Current Status

Altitude 351.9 km
Apogee / Perigee N/A
Velocity 7.70 km/s
Sub-Earth Point 57.23°N, 135.44°W
Launch Date Aug 8, 2026
Age 31 days
Type internet

Technical Details

Classification Payload
Mass 575.00 kg
Dry Mass 530.00 kg
Total Mass 575.00 kg
Length 0.30 m
Diameter 4.10 m
Span 29.00 m
Shape Box + pan
Manufacturer SPXS
Bus Type Starlink V2MO
Phase Status In Orbit
Owner/State SPXS/US

Most Searched